When you browse on this site, cookies collect data to enhance your experience and personalize the content and advertising you see.
Visit our Privacy Policy to learn more. By continuing to use the site, you agree to this use of cookies and data.
  • Em Portugal
  • Lista de países
  • Para 7 dias
  • Temperatura da água
  • Mapas de satélite
  • Mapa do tempo
  • Widgets de tempo
  • user-avatar
    Iniciar Sessão

    Previsão horária em Stropieszyn

    Hoje, 16 Junho, Domingo

    Tempo Temperatura Precipitação Vento Pressão Humidade
    00:00 +23°C° 0.3 mm 2 m/s 740 mmHg 89%
    01:00 +22°C° 0 mm 3 m/s 740 mmHg 89%
    02:00 +21°C° 0 mm 3 m/s 740 mmHg 90%
    03:00 +20°C° 0 mm 2 m/s 740 mmHg 92%
    04:00 +19°C° 0 mm 2 m/s 740 mmHg 94%
    05:00 +20°C° 0 mm 3 m/s 740 mmHg 90%
    06:00 +21°C° 0 mm 3 m/s 740 mmHg 86%
    07:00 +22°C° 0 mm 3 m/s 741 mmHg 83%
    08:00 +25°C° 0 mm 3 m/s 741 mmHg 78%
    09:00 +26°C° 0 mm 3 m/s 741 mmHg 72%
    10:00 +28°C° 0 mm 3 m/s 741 mmHg 67%
    11:00 +28°C° 0 mm 3 m/s 741 mmHg 65%
    12:00 +29°C° 0 mm 3 m/s 741 mmHg 63%
    13:00 +30°C° 0 mm 4 m/s 741 mmHg 61%
    14:00 +29°C° 0.8 mm 4 m/s 741 mmHg 65%
    15:00 +28°C° 0.8 mm 4 m/s 742 mmHg 70%
    16:00 +27°C° 0.8 mm 3 m/s 742 mmHg 74%
    17:00 +25°C° 2.8 mm 4 m/s 742 mmHg 79%
    18:00 +23°C° 2.8 mm 5 m/s 743 mmHg 84%
    19:00 +21°C° 2.8 mm 6 m/s 743 mmHg 90%
    20:00 +20°C° 0.2 mm 5 m/s 743 mmHg 91%
    21:00 +19°C° 0.2 mm 3 m/s 743 mmHg 93%
    22:00 +19°C° 0.2 mm 2 m/s 744 mmHg 95%
    23:00 +18°C° 0 mm 2 m/s 744 mmHg 95%

    Amanhã, 17 Junho, Segunda-feira

    Tempo Temperatura Precipitação Vento Pressão Humidade
    00:00 +18°C° 0 mm 2 m/s 744 mmHg 95%
    01:00 +17°C° 0 mm 3 m/s 744 mmHg 95%
    02:00 +17°C° 0 mm 3 m/s 744 mmHg 95%
    03:00 +16°C° 0 mm 3 m/s 744 mmHg 96%
    04:00 +16°C° 0 mm 2 m/s 744 mmHg 96%
    05:00 +16°C° 0 mm 3 m/s 745 mmHg 93%
    06:00 +17°C° 0 mm 3 m/s 745 mmHg 89%
    07:00 +18°C° 0 mm 4 m/s 746 mmHg 86%
    08:00 +19°C° 0 mm 3 m/s 745 mmHg 79%
    09:00 +21°C° 0 mm 3 m/s 745 mmHg 72%
    10:00 +22°C° 0 mm 3 m/s 745 mmHg 65%
    11:00 +24°C° 0 mm 3 m/s 745 mmHg 61%
    12:00 +25°C° 0 mm 3 m/s 745 mmHg 58%
    13:00 +25°C° 0 mm 3 m/s 745 mmHg 55%
    14:00 +25°C° 0 mm 3 m/s 745 mmHg 55%
    15:00 +25°C° 0 mm 3 m/s 744 mmHg 56%
    16:00 +25°C° 0 mm 3 m/s 744 mmHg 57%
    17:00 +24°C° 0 mm 3 m/s 744 mmHg 64%
    18:00 +22°C° 0 mm 3 m/s 744 mmHg 70%
    19:00 +21°C° 0 mm 2 m/s 744 mmHg 77%
    20:00 +20°C° 0 mm 3 m/s 744 mmHg 81%
    21:00 +19°C° 0 mm 3 m/s 744 mmHg 85%
    22:00 +17°C° 0 mm 3 m/s 745 mmHg 90%
    23:00 +17°C° 0 mm 3 m/s 745 mmHg 91%

    Depois de amanhã, 18 Junho, Terça-feira

    Tempo Temperatura Precipitação Vento Pressão Humidade
    00:00 +16°C° 0 mm 3 m/s 744 mmHg 93%
    01:00 +16°C° 0 mm 2 m/s 744 mmHg 95%
    02:00 +16°C° 0 mm 2 m/s 744 mmHg 95%
    03:00 +16°C° 0 mm 2 m/s 744 mmHg 96%
    04:00 +15°C° 0 mm 2 m/s 744 mmHg 96%
    05:00 +17°C° 0 mm 3 m/s 744 mmHg 92%
    06:00 +18°C° 0 mm 3 m/s 744 mmHg 87%
    07:00 +20°C° 0 mm 4 m/s 744 mmHg 83%
    08:00 +21°C° 0 mm 4 m/s 744 mmHg 79%
    09:00 +22°C° 0 mm 4 m/s 744 mmHg 76%
    10:00 +23°C° 0 mm 4 m/s 744 mmHg 72%
    11:00 +25°C° 0 mm 4 m/s 744 mmHg 68%
    12:00 +25°C° 0 mm 4 m/s 743 mmHg 67%
    13:00 +26°C° 0 mm 4 m/s 743 mmHg 65%
    14:00 +26°C° 0 mm 4 m/s 743 mmHg 67%
    15:00 +26°C° 0 mm 4 m/s 743 mmHg 69%
    16:00 +26°C° 0 mm 3 m/s 742 mmHg 71%
    17:00 +25°C° 0 mm 3 m/s 742 mmHg 76%
    18:00 +24°C° 0 mm 3 m/s 742 mmHg 80%
    19:00 +22°C° 0 mm 3 m/s 742 mmHg 84%
    20:00 +22°C° 0.2 mm 3 m/s 742 mmHg 86%
    21:00 +21°C° 0.2 mm 3 m/s 742 mmHg 87%
    22:00 +21°C° 0.2 mm 4 m/s 742 mmHg 89%
    23:00 +20°C° 0.1 mm 3 m/s 742 mmHg 91%

    19 Junho, Quarta-feira

    Tempo Temperatura Precipitação Vento Pressão Humidade
    00:00 +20°C° 0.1 mm 3 m/s 741 mmHg 93%
    01:00 +19°C° 0.1 mm 3 m/s 741 mmHg 95%
    02:00 +19°C° 0 mm 2 m/s 741 mmHg 95%
    03:00 +18°C° 0 mm 2 m/s 741 mmHg 96%
    04:00 +19°C° 0 mm 1 m/s 741 mmHg 96%
    05:00 +20°C° 0 mm 1 m/s 741 mmHg 92%
    06:00 +22°C° 0 mm 1 m/s 741 mmHg 87%
    07:00 +23°C° 0 mm 1 m/s 741 mmHg 83%
    08:00 +24°C° 0 mm 1 m/s 741 mmHg 79%
    09:00 +23°C° 0 mm 0 m/s 741 mmHg 74%
    10:00 +25°C° 0 mm 0 m/s 741 mmHg 70%
    11:00 +25°C° 0 mm 0 m/s 741 mmHg 66%
    12:00 +28°C° 0 mm 1 m/s 740 mmHg 61%
    13:00 +29°C° 0 mm 1 m/s 740 mmHg 57%
    14:00 +29°C° 0 mm 1 m/s 740 mmHg 59%
    15:00 +29°C° 0 mm 1 m/s 740 mmHg 61%
    16:00 +29°C° 0 mm 1 m/s 740 mmHg 63%
    17:00 +27°C° 0.2 mm 1 m/s 739 mmHg 66%
    18:00 +26°C° 0.2 mm 1 m/s 739 mmHg 70%
    19:00 +25°C° 0.2 mm 1 m/s 739 mmHg 73%
    20:00 +24°C° 0 mm 1 m/s 739 mmHg 73%
    21:00 +24°C° 0 mm 1 m/s 740 mmHg 73%
    22:00 +24°C° 0 mm 1 m/s 740 mmHg 72%
    23:00 +23°C° 0.4 mm 1 m/s 740 mmHg 77%

    20 Junho, Quinta-feira

    Tempo Temperatura Precipitação Vento Pressão Humidade
    00:00 +22°C° 0.4 mm 1 m/s 739 mmHg 82%
    01:00 +19°C° 0.4 mm 0 m/s 739 mmHg 86%
    02:00 +21°C° 0.3 mm 1 m/s 739 mmHg 87%
    03:00 +21°C° 0.3 mm 1 m/s 739 mmHg 89%
    04:00 +20°C° 0.3 mm 2 m/s 739 mmHg 90%
    05:00 +20°C° 0 mm 2 m/s 739 mmHg 89%
    06:00 +20°C° 0 mm 2 m/s 739 mmHg 88%
    07:00 +21°C° 0 mm 2 m/s 740 mmHg 87%
    08:00 +24°C° 0 mm 1 m/s 740 mmHg 80%
    09:00 +25°C° 0 mm 1 m/s 740 mmHg 73%
    10:00 +27°C° 0 mm 1 m/s 740 mmHg 65%
    11:00 +27°C° 0.8 mm 1 m/s 740 mmHg 65%
    12:00 +27°C° 0.8 mm 1 m/s 740 mmHg 65%
    13:00 +28°C° 0.8 mm 1 m/s 740 mmHg 65%
    14:00 +26°C° 1 mm 1 m/s 740 mmHg 71%
    15:00 +25°C° 1 mm 1 m/s 740 mmHg 78%
    16:00 +24°C° 1 mm 1 m/s 740 mmHg 84%
    17:00 +23°C° 0.1 mm 1 m/s 740 mmHg 83%
    18:00 +23°C° 0.1 mm 1 m/s 740 mmHg 83%
    19:00 +21°C° 0.1 mm 0 m/s 740 mmHg 82%
    20:00 +20°C° 0 mm 0 m/s 740 mmHg 84%
    21:00 +19°C° 0 mm 0 m/s 740 mmHg 85%
    22:00 +18°C° 0 mm 0 m/s 741 mmHg 87%
    23:00 +18°C° 0 mm 0 m/s 741 mmHg 87%

    21 Junho, Sexta-feira

    Tempo Temperatura Precipitação Vento Pressão Humidade
    00:00 +18°C° 0 mm 0 m/s 741 mmHg 88%
    01:00 +17°C° 0 mm 0 m/s 741 mmHg 88%
    02:00 +17°C° 0 mm 0 m/s 741 mmHg 89%
    03:00 +17°C° 0 mm 0 m/s 741 mmHg 89%
    04:00 +17°C° 0 mm 0 m/s 741 mmHg 89%
    05:00 +18°C° 0 mm 0 m/s 741 mmHg 85%
    06:00 +20°C° 0 mm 0 m/s 741 mmHg 82%
    07:00 +22°C° 0 mm 0 m/s 742 mmHg 78%
    08:00 +25°C° 0 mm 1 m/s 742 mmHg 73%
    09:00 +26°C° 0 mm 1 m/s 742 mmHg 68%
    10:00 +27°C° 0 mm 2 m/s 742 mmHg 63%
    11:00 +28°C° 0 mm 2 m/s 741 mmHg 61%
    12:00 +29°C° 0 mm 2 m/s 741 mmHg 59%
    13:00 +30°C° 0 mm 3 m/s 741 mmHg 57%
    14:00 +30°C° 0.1 mm 3 m/s 740 mmHg 58%
    15:00 +30°C° 0.1 mm 3 m/s 740 mmHg 60%
    16:00 +30°C° 0.1 mm 3 m/s 740 mmHg 61%
    17:00 +28°C° 0.5 mm 3 m/s 740 mmHg 68%
    18:00 +27°C° 0.5 mm 3 m/s 740 mmHg 75%
    19:00 +25°C° 0.5 mm 3 m/s 739 mmHg 82%
    20:00 +24°C° 0 mm 3 m/s 739 mmHg 84%
    21:00 +23°C° 0 mm 2 m/s 739 mmHg 86%
    22:00 +23°C° 0 mm 2 m/s 740 mmHg 88%
    23:00 +21°C° 0 mm 2 m/s 739 mmHg 89%
    Mostrar mais